FW3211 Weather Reports


time (UTC)temp
C
wind
direction
speed
KPH
gust
KPH
rain 1hr
cm
rain 24hr
cm
rain mn
cm
humidity
%
barometer
mb
20260904050617 22 4 1.6 4.8 0.00 0.00 0.00 64 1021.5
20260904050119 22 4 1.6 3.2 0.00 0.00 0.00 64 1021.4
20260904045602 22 4 3.2 4.8 0.00 0.00 0.00 63 1021.3
20260904045103 23 4 3.2 4.8 0.00 0.00 0.00 64 1021.3
20260904044602 23 4 3.2 3.2 0.00 0.00 0.00 65 1021.3
20260904044101 23 4 1.6 3.2 0.00 0.00 0.00 65 1021.3
20260904043558 23 4 3.2 3.2 0.00 0.00 0.00 66 1021.2
20260904043343 23 4 3.2 3.2 0.00 0.00 0.00 65 1021.2
20260904042557 23 4 1.6 3.2 0.00 0.00 0.00 66 1021.2
20260904042100 23 4 3.2 4.8 0.00 0.00 0.00 67 1021.2
20260904041556 23 4 3.2 4.8 0.00 0.00 0.00 67 1021.1
20260904041332 23 4 3.2 4.8 0.00 0.00 0.00 65 1021.1
20260904040548 23 4 3.2 4.8 0.00 0.00 0.00 66 1021.0
20260904040045 23 4 3.2 3.2 0.00 0.00 0.00 66 1021.0
20260904035545 23 4 3.2 4.8 0.00 0.00 0.00 66 1021.1
20260904035042 23 4 3.2 4.8 0.00 0.00 0.00 66 1021.1
20260904034541 23 4 3.2 4.8 0.00 0.00 0.00 66 1021.1
20260904034038 23 4 3.2 4.8 0.00 0.00 0.00 66 1021.2
20260904033910 23 4 3.2 3.2 0.00 0.00 0.00 64 1021.2
20260904033606 23 4 3.2 3.2 0.00 0.00 0.00 65 1021.2
20260904032538 23 4 3.2 3.2 0.00 0.00 0.00 63 1021.2
20260904032040 23 4 3.2 4.8 0.00 0.00 0.00 59 1021.2
20260904031541 23 4 3.2 4.8 0.00 0.00 0.00 56 1021.1
20260904031040 23 4 3.2 4.8 0.00 0.00 0.00 56 1021.1
20260904030538 23 4 3.2 4.8 0.00 0.00 0.00 54 1021.1
20260904030036 23 4 3.2 4.8 0.00 0.00 0.00 52 1021.1
20260904025528 23 4 3.2 4.8 0.00 0.00 0.00 53 1021.1
20260904025022 23 4 3.2 6.4 0.00 0.00 0.00 56 1021.1
20260904024523 23 4 3.2 6.4 0.00 0.00 0.00 57 1021.0
20260904024022 23 4 3.2 4.8 0.00 0.00 0.00 54 1021.0
20260904023522 23 4 3.2 4.8 0.00 0.00 0.00 54 1021.1
20260904023024 23 4 3.2 4.8 0.00 0.00 0.00 58 1021.1
20260904022519 23 4 3.2 4.8 0.00 0.00 0.00 59 1021.1
20260904022029 23 4 3.2 4.8 0.00 0.00 0.00 58 1021.2
20260904021518 23 4 3.2 4.8 0.00 0.00 0.00 57 1021.3
20260904021016 23 4 3.2 4.8 0.00 0.00 0.00 57 1021.2
20260904020515 23 4 3.2 4.8 0.00 0.00 0.00 58 1021.2
20260904020021 23 4 3.2 4.8 0.00 0.00 0.00 57 1021.2
20260904015517 23 4 3.2 4.8 0.00 0.00 0.00 57 1021.2
20260904015013 23 4 3.2 4.8 0.00 0.00 0.00 54 1021.2
20260904014516 23 4 3.2 4.8 0.00 0.00 0.00 54 1021.2
20260904014028 23 4 3.2 4.8 0.00 0.00 0.00 54 1021.2
20260904013512 23 349 3.2 4.8 0.00 0.00 0.00 55 1021.1
20260904013012 23 349 4.8 6.4 0.00 0.00 0.00 55 1021.2
20260904012512 23 349 4.8 6.4 0.00 0.00 0.00 55 1021.1
20260904012012 24 359 3.2 4.8 0.00 0.00 0.00 56 1021.1
20260904011511 24 354 3.2 4.8 0.00 0.00 0.00 57 1021.1
20260904011008 24 338 3.2 4.8 0.00 0.00 0.00 56 1021.1
20260904010509 24 338 3.2 4.8 0.00 0.00 0.00 56 1021.1
20260904010008 24 337 3.2 4.8 0.00 0.00 0.00 55 1021.1
20260904005510 24 337 3.2 4.8 0.00 0.00 0.00 56 1021.0
20260904005255 24 337 3.2 4.8 0.00 0.00 0.00 53 1021.0
20260904004508 24 337 3.2 4.8 0.00 0.00 0.00 55 1021.0
20260904004007 24 337 3.2 6.4 0.00 0.00 0.00 53 1021.0
20260904003506 24 321 3.2 6.4 0.00 0.00 0.00 53 1021.0
20260904003250 24 300 3.2 4.8 0.00 0.00 0.00 57 1021.0
20260904002510 24 300 3.2 4.8 0.00 0.00 0.00 55 1021.1
20260904002010 24 300 3.2 6.4 0.00 0.00 0.00 56 1021.1
20260904001507 24 293 3.2 6.4 0.00 0.00 0.00 55 1021.1
20260904001006 24 338 3.2 6.4 0.00 0.00 0.00 57 1021.2
20260904000506 24 339 3.2 4.8 0.00 0.00 0.00 57 1021.2
20260904000016 23 347 3.2 4.8 0.00 0.00 0.00 57 1021.3
20260903235802 23 4 3.2 4.8 0.00 0.00 0.00 57 1021.2
20260903235011 23 4 3.2 6.4 0.00 0.00 0.00 55 1021.3
20260903234511 23 4 3.2 6.4 0.00 0.00 0.00 53 1021.3
20260903234256 23 4 3.2 4.8 0.00 0.00 0.00 52 1021.2
20260903233508 23 4 3.2 4.8 0.00 0.00 0.00 53 1021.2
20260903233008 23 340 3.2 4.8 0.00 0.00 0.00 53 1021.3
20260903232515 23 340 3.2 4.8 0.00 0.00 0.00 53 1021.2
20260903232258 23 340 3.2 4.8 0.00 0.00 0.00 52 1021.2
20260903231949 23 340 3.2 4.8 0.00 0.00 0.00 52 1021.2
20260903231601 23 340 3.2 4.8 0.00 0.00 0.00 53 1021.2
20260903230507 23 338 3.2 4.8 0.00 0.00 0.00 53 1021.3
20260903230006 23 337 4.8 6.4 0.00 0.00 0.00 55 1021.3
20260903225507 23 337 4.8 6.4 0.00 0.00 0.00 57 1021.4
20260903225008 23 335 4.8 6.4 0.00 0.00 0.00 57 1021.4
20260903224507 23 334 4.8 6.4 0.00 0.00 0.00 56 1021.3
20260903224005 23 335 4.8 6.4 0.00 0.00 0.00 56 1021.3
20260903223747 23 340 4.8 6.4 0.00 0.00 0.00 58 1021.3
20260903223001 23 315 3.2 6.4 0.00 0.00 0.00 61 1021.2
20260903222503 23 302 3.2 6.4 0.00 0.00 0.00 63 1021.2
20260903222311 23 341 4.8 6.4 0.00 0.00 0.00 64 1021.2
20260903221743 23 316 4.8 6.4 0.00 0.00 0.00 58 1021.2
20260903220956 23 333 3.2 4.8 0.00 0.00 0.00 60 1021.3
20260903220743 23 342 4.8 4.8 0.00 0.00 0.00 61 1021.3
20260903215956 23 337 4.8 4.8 0.00 0.00 0.00 65 1021.4
20260903215733 23 354 4.8 6.4 0.00 0.00 0.00 67 1021.3
20260903214957 23 301 4.8 6.4 0.00 0.00 0.00 69 1021.2
20260903214455 23 354 4.8 6.4 0.00 0.00 0.00 70 1021.2
20260903213950 23 354 3.2 6.4 0.00 0.00 0.00 71 1021.3
20260903213443 23 341 3.2 6.4 0.00 0.00 0.00 74 1021.3
20260903212941 23 341 3.2 4.8 0.00 0.00 0.00 74 1021.3
20260903212443 23 316 3.2 4.8 0.00 0.00 0.00 75 1021.3
20260903212223 23 316 3.2 4.8 0.00 0.00 0.00 75 1021.4
20260903211439 23 314 3.2 4.8 0.00 0.00 0.00 74 1021.3
20260903210937 23 314 3.2 4.8 0.00 0.00 0.00 74 1021.3
20260903210437 23 312 3.2 4.8 0.00 0.00 0.00 75 1021.2
20260903210240 23 312 3.2 4.8 0.00 0.00 0.00 75 1021.2
20260903205714 23 312 3.2 4.8 0.00 0.00 0.00 75 1021.1
20260903204935 23 312 3.2 4.8 0.00 0.00 0.00 75 1021.1
20260903204434 23 309 3.2 4.8 0.00 0.00 0.00 75 1021.1
20260903203933 23 308 3.2 4.8 0.00 0.00 0.00 75 1021.2
20260903203432 23 308 3.2 4.8 0.00 0.00 0.00 75 1021.2
20260903202934 23 308 3.2 4.8 0.00 0.00 0.00 75 1021.2
20260903202432 23 308 3.2 4.8 0.00 0.00 0.00 75 1021.2
20260903201933 23 301 3.2 4.8 0.00 0.00 0.00 76 1021.2
20260903201436 23 286 3.2 4.8 0.00 0.00 0.00 76 1021.1
20260903200943 23 286 3.2 4.8 0.00 0.00 0.00 76 1021.1
20260903200433 23 286 1.6 4.8 0.00 0.00 0.00 76 1021.2
20260903200018 23 286 3.2 4.8 0.00 0.00 0.00 76 1021.1
20260903195958 23 286 3.2 3.2 0.00 0.00 0.00 76 1021.1
20260903195217 23 286 3.2 4.8 0.00 0.00 0.00 76 1021.1
20260903194432 23 278 3.2 4.8 0.00 0.00 0.00 76 1021.1
20260903193934 23 278 3.2 4.8 0.00 0.00 0.00 76 1021.0
20260903193435 23 276 3.2 4.8 0.00 0.00 0.00 76 1021.0
20260903193221 23 276 3.2 4.8 0.00 0.00 0.00 76 1021.1
20260903192434 23 276 3.2 3.2 0.00 0.00 0.00 76 1020.9
20260903191934 23 276 1.6 4.8 0.00 0.00 0.00 76 1020.9
20260903191428 23 276 1.6 4.8 0.00 0.00 0.00 76 1020.9
20260903190921 23 276 1.6 3.2 0.00 0.00 0.00 76 1020.9
20260903190656 23 276 1.6 3.2 0.00 0.00 0.00 76 1021.0
20260903185919 23 276 1.6 3.2 0.00 0.00 0.00 76 1021.0
20260903185711 23 276 1.6 3.2 0.00 0.00 0.00 76 1021.0
20260903184921 23 276 1.6 3.2 0.00 0.00 0.00 76 1020.9
20260903184417 23 276 1.6 3.2 0.00 0.00 0.00 76 1020.8
20260903183920 23 276 1.6 3.2 0.00 0.00 0.00 77 1020.8
20260903183416 23 276 3.2 4.8 0.00 0.00 0.00 77 1020.8
20260903182918 23 276 1.6 4.8 0.00 0.00 0.00 76 1020.7
20260903182415 24 276 1.6 3.2 0.00 0.00 0.00 76 1020.8
20260903181916 24 276 1.6 3.2 0.00 0.00 0.00 76 1020.7
20260903181656 24 276 1.6 3.2 0.00 0.00 0.00 76 1020.7
20260903180909 24 276 1.6 4.8 0.00 0.00 0.00 76 1020.7
20260903180411 24 276 1.6 4.8 0.00 0.00 0.00 76 1020.7
20260903175909 24 276 1.6 3.2 0.00 0.00 0.00 76 1020.6
20260903175411 24 276 1.6 3.2 0.00 0.00 0.00 76 1020.6
20260903174910 24 276 1.6 3.2 0.00 0.00 0.00 75 1020.7
20260903174409 24 276 1.6 3.2 0.00 0.00 0.00 75 1020.6
20260903173909 24 276 1.6 3.2 0.00 0.00 0.00 75 1020.6
20260903173409 25 276 1.6 3.2 0.00 0.00 0.00 75 1020.6
20260903172911 25 276 1.6 3.2 0.00 0.00 0.00 75 1020.6
20260903172412 25 276 1.6 3.2 0.00 0.00 0.00 75 1020.6
20260903171910 25 276 1.6 3.2 0.00 0.00 0.00 75 1020.5
20260903171409 25 276 1.6 4.8 0.00 0.00 0.00 75 1020.5
20260903171203 25 276 3.2 4.8 0.00 0.00 0.00 74 1020.5
20260903170425 25 276 3.2 4.8 0.00 0.00 0.00 74 1020.5
20260903165907 25 276 3.2 4.8 0.00 0.00 0.00 73 1020.5
20260903165407 25 276 1.6 3.2 0.00 0.00 0.00 73 1020.5
20260903164909 25 275 3.2 4.8 0.00 0.00 0.00 72 1020.5
20260903164412 25 275 3.2 6.4 0.00 0.00 0.00 71 1020.5
20260903163907 25 275 3.2 6.4 0.00 0.00 0.00 71 1020.5
20260903163441 25 61 1.6 4.8 0.00 0.00 0.00 72 1020.5
20260903163427 25 293 1.6 6.4 0.00 0.00 0.00 71 1020.5
20260903162408 25 61 1.6 4.8 0.00 0.00 0.00 71 1020.5
20260903161907 25 287 3.2 6.4 0.00 0.00 0.00 71 1020.6
20260903161407 25 287 3.2 6.4 0.00 0.00 0.00 70 1020.5
20260903160912 25 234 1.6 4.8 0.00 0.00 0.00 71 1020.4
20260903160405 26 150 1.6 4.8 0.00 0.00 0.00 71 1020.6
20260903160151 26 149 1.6 3.2 0.00 0.00 0.00 73 1020.6
20260903155406 26 149 1.6 3.2 0.00 0.00 0.00 72 1020.4
20260903154905 26 149 1.6 3.2 0.00 0.00 0.00 72 1020.4
20260903154405 26 149 1.6 4.8 0.00 0.00 0.00 72 1020.6
20260903153904 26 149 1.6 4.8 0.00 0.00 0.00 70 1020.6
20260903153408 26 231 0.0 3.2 0.00 0.00 0.00 71 1020.7
20260903152907 26 278 1.6 6.4 0.00 0.00 0.00 70 1020.7
20260903152419 26 278 1.6 6.4 0.00 0.00 0.00 69 1020.6
20260903151919 27 291 1.6 4.8 0.00 0.00 0.00 69 1020.7
20260903151420 27 148 1.6 3.2 0.00 0.00 0.00 69 1020.6
20260903150905 26 149 1.6 4.8 0.00 0.00 0.00 67 1020.6
20260903150405 26 149 1.6 4.8 0.00 0.00 0.00 67 1020.7
20260903145906 27 139 1.6 4.8 0.00 0.00 0.00 65 1020.8
20260903145405 27 139 1.6 3.2 0.00 0.00 0.00 66 1020.7
20260903144903 27 139 1.6 3.2 0.00 0.00 0.00 65 1020.7
20260903144443 27 139 1.6 4.8 0.00 0.00 0.00 65 1020.9
20260903144424 27 139 1.6 4.8 0.00 0.00 0.00 66 1020.9
20260903143649 27 139 1.6 4.8 0.00 0.00 0.00 65 1020.9
20260903142857 27 140 1.6 3.2 0.00 0.00 0.00 63 1021.0
20260903142426 27 141 3.2 9.7 0.00 0.00 0.00 63 1021.0
20260903142414 27 141 1.6 6.4 0.00 0.00 0.00 64 1021.0
20260903141358 27 138 3.2 9.7 0.00 0.00 0.00 61 1021.0
20260903140855 27 122 3.2 9.7 0.00 0.00 0.00 61 1021.0
20260903140353 27 144 3.2 9.7 0.00 0.00 0.00 61 1021.0
20260903135853 27 161 4.8 11.3 0.00 0.00 0.00 60 1021.0
20260903135353 27 115 4.8 11.3 0.00 0.00 0.00 61 1021.1
20260903134854 27 144 4.8 12.9 0.00 0.00 0.00 62 1021.1
20260903134354 28 99 4.8 12.9 0.00 0.00 0.00 61 1021.2
20260903133854 28 125 3.2 11.3 0.00 0.00 0.00 61 1021.2
20260903133349 28 135 3.2 11.3 0.00 0.00 0.00 62 1021.2
20260903132848 28 133 4.8 11.3 0.00 0.00 0.00 62 1021.2
20260903132350 28 145 3.2 12.9 0.00 0.00 0.00 61 1021.2
20260903131842 28 150 4.8 14.5 0.00 0.00 0.00 62 1021.1
20260903131341 28 176 4.8 14.5 0.00 0.00 0.00 62 1021.1
20260903130837 28 154 4.8 11.3 0.00 0.00 0.00 62 1021.1
20260903130337 28 42 4.8 16.1 0.00 0.00 0.00 62 1021.1
20260903125839 28 149 4.8 16.1 0.00 0.00 0.00 61 1021.1
20260903125624 28 152 4.8 12.9 0.00 0.00 0.00 61 1021.1
20260903124834 28 145 4.8 11.3 0.00 0.00 0.00 62 1021.0
20260903124333 28 160 4.8 11.3 0.00 0.00 0.00 63 1021.0
20260903123832 28 143 4.8 14.5 0.00 0.00 0.00 65 1021.0
20260903123334 28 97 4.8 14.5 0.00 0.00 0.00 64 1021.0
20260903122833 28 151 4.8 11.3 0.00 0.00 0.00 64 1021.1
20260903122333 28 131 4.8 11.3 0.00 0.00 0.00 65 1021.1
20260903122135 28 140 4.8 11.3 0.00 0.00 0.00 65 1021.1
20260903121332 28 113 4.8 14.5 0.00 0.00 0.00 66 1021.1
20260903120832 27 101 6.4 14.5 0.00 0.00 0.00 66 1021.2
20260903120331 27 206 6.4 14.5 0.00 0.00 0.00 65 1021.2
20260903120224 27 186 4.8 12.9 0.00 0.00 0.00 66 1021.3
20260903115314 28 126 4.8 12.9 0.00 0.00 0.00 70 1021.3
20260903115058 28 106 4.8 12.9 0.00 0.00 0.00 71 1021.3
20260903114312 28 140 4.8 11.3 0.00 0.00 0.00 70 1021.3
20260903114109 28 148 4.8 11.3 0.00 0.00 0.00 69 1021.3
20260903113634 28 165 4.8 9.7 0.00 0.00 0.00 70 1021.3
20260903113121 27 122 4.8 11.3 0.00 0.00 0.00 71 1021.3
20260903112313 27 151 4.8 11.3 0.00 0.00 0.00 70 1021.3
20260903111813 27 110 4.8 11.3 0.00 0.00 0.00 70 1021.4
20260903111313 27 134 4.8 16.1 0.00 0.00 0.00 70 1021.5
20260903110811 28 169 4.8 16.1 0.00 0.00 0.00 70 1021.5
20260903110309 27 110 4.8 12.9 0.00 0.00 0.00 70 1021.5
20260903105809 27 143 4.8 9.7 0.00 0.00 0.00 70 1021.6
20260903105311 27 143 3.2 9.7 0.00 0.00 0.00 70 1021.5
20260903104810 27 114 3.2 9.7 0.00 0.00 0.00 69 1021.8
20260903104310 27 120 3.2 9.7 0.00 0.00 0.00 68 1021.8
20260903103804 27 129 3.2 8.0 0.00 0.00 0.00 68 1021.8
20260903103552 27 141 3.2 9.7 0.00 0.00 0.00 67 1021.8
20260903103102 28 148 3.2 9.7 0.00 0.00 0.00 65 1021.8
20260903102552 28 128 3.2 8.0 0.00 0.00 0.00 65 1021.8
20260903101805 28 164 3.2 8.0 0.00 0.00 0.00 64 1021.8
20260903101553 27 129 3.2 9.7 0.00 0.00 0.00 64 1022.0
20260903100805 27 133 3.2 9.7 0.00 0.00 0.00 64 1022.0
20260903100307 27 160 3.2 6.4 0.00 0.00 0.00 64 1022.1
20260903095805 27 171 3.2 8.0 0.00 0.00 0.00 63 1022.1
20260903095630 27 202 3.2 8.0 0.00 0.00 0.00 65 1022.2
20260903095327 27 170 3.2 8.0 0.00 0.00 0.00 65 1022.1
20260903094305 27 147 3.2 8.0 0.00 0.00 0.00 65 1022.2
20260903093809 27 171 3.2 9.7 0.00 0.00 0.00 65 1022.2
20260903093308 27 120 3.2 9.7 0.00 0.00 0.00 66 1022.3
20260903092804 27 151 3.2 8.0 0.00 0.00 0.00 66 1022.3
20260903092306 27 125 3.2 8.0 0.00 0.00 0.00 65 1022.4
20260903091808 26 112 3.2 6.4 0.00 0.00 0.00 66 1022.4
20260903091303 26 183 3.2 6.4 0.00 0.00 0.00 67 1022.3
20260903090804 26 131 3.2 6.4 0.00 0.00 0.00 67 1022.3
20260903090304 26 112 3.2 9.7 0.00 0.00 0.00 69 1022.3
20260903085804 26 143 3.2 9.7 0.00 0.00 0.00 69 1022.3
20260903085548 26 126 3.2 8.0 0.00 0.00 0.00 70 1022.2
20260903084804 26 145 3.2 8.0 0.00 0.00 0.00 71 1022.1
20260903084306 26 171 1.6 8.0 0.00 0.00 0.00 71 1022.2
20260903083804 26 193 3.2 8.0 0.00 0.00 0.00 71 1022.2
20260903083303 25 127 3.2 6.4 0.00 0.00 0.00 72 1022.2
20260903082804 25 149 3.2 6.4 0.00 0.00 0.00 72 1022.1
20260903082308 25 137 3.2 6.4 0.00 0.00 0.00 71 1022.0
20260903081804 25 135 3.2 4.8 0.00 0.00 0.00 71 1021.8
20260903081556 25 138 3.2 6.4 0.00 0.00 0.00 71 1021.8
20260903081155 25 162 3.2 8.0 0.00 0.00 0.00 70 1021.8
20260903081150 25 137 3.2 6.4 0.00 0.00 0.00 71 1021.8
20260903075805 25 163 3.2 8.0 0.00 0.00 0.00 71 1021.8
20260903075307 24 152 3.2 4.8 0.00 0.00 0.00 71 1021.7
20260903074810 24 152 3.2 6.4 0.00 0.00 0.00 71 1021.7
20260903074306 24 143 3.2 6.4 0.00 0.00 0.00 71 1021.6
20260903073805 24 110 3.2 6.4 0.00 0.00 0.00 70 1021.5
20260903073306 24 127 3.2 6.4 0.00 0.00 0.00 70 1021.5
20260903072805 24 124 3.2 6.4 0.00 0.00 0.00 71 1021.5
20260903072306 23 125 3.2 6.4 0.00 0.00 0.00 70 1021.5
20260903071809 23 126 1.6 4.8 0.00 0.00 0.00 72 1021.5
20260903071305 23 125 3.2 4.8 0.00 0.00 0.00 72 1021.5
20260903070804 23 126 3.2 4.8 0.00 0.00 0.00 72 1021.4
20260903070550 23 126 3.2 4.8 0.00 0.00 0.00 71 1021.4
20260903070114 23 125 3.2 4.8 0.00 0.00 0.00 70 1021.4
20260903065306 23 125 1.6 4.8 0.00 0.00 0.00 70 1021.4
20260903064804 23 125 1.6 4.8 0.00 0.00 0.00 70 1021.4
20260903064306 23 125 1.6 4.8 0.00 0.00 0.00 70 1021.4
20260903063804 23 125 1.6 4.8 0.00 0.00 0.00 72 1021.3
20260903063303 23 125 1.6 4.8 0.00 0.00 0.00 72 1021.3
20260903062809 23 125 1.6 4.8 0.00 0.00 0.00 72 1021.3
20260903062306 23 58 1.6 4.8 0.00 0.00 0.00 71 1021.3
20260903061803 23 58 1.6 4.8 0.00 0.00 0.00 72 1021.3
20260903061547 23 58 1.6 3.2 0.00 0.00 0.00 72 1021.1
20260903060803 23 58 0.0 4.8 0.00 0.00 0.00 72 1021.1
20260903060314 23 58 0.0 4.8 0.00 0.00 0.00 71 1021.1
20260903060111 23 57 0.0 3.2 0.00 0.00 0.00 71 1021.1
20260903055309 23 57 1.6 3.2 0.00 0.00 0.00 71 1021.0
20260903054807 22 359 0.0 3.2 0.00 0.00 0.00 71 1021.0
20260903054319 22 359 0.0 1.6 0.00 0.00 0.00 71 1021.0
20260903054116 22 359 0.0 1.6 0.00 0.00 0.00 71 1020.9
20260903053306 22 359 0.0 1.6 0.00 0.00 0.00 71 1020.9
20260903052821 21 359 0.0 1.6 0.00 0.00 0.00 70 1020.9
20260903052307 21 359 0.0 1.6 0.00 0.00 0.00 71 1020.8
20260903051809 21 359 1.6 3.2 0.00 0.00 0.00 73 1020.8
20260903051421 21 359 3.2 4.8 0.00 0.00 0.00 73 1020.8
20260903051402 21 359 1.6 3.2 0.00 0.00 0.00 73 1020.8